#timestamp,LO_Frequency,Hit,StdDev 
1538499615.9,286047004.6,N
1538499635.7,286047003.0,N
1538499655.6,286047001.3,N
1538499675.4,286047006.1,N
1538499695.2,286047009.0,N
1538499715.1,286047010.8,Y
1538499716.0,286047010.8,P
1538499735.8,286047007.0,N
1538499755.7,286047006.9,N
1538499775.5,286047006.9,N
1538499795.3,286047003.7,N
1538499815.2,286046999.7,N
1538499835.0,286047001.0,N
1538499835.9,286047001.0,N
1538499855.8,286047000.0,N
1538499875.6,286046998.7,N
1538499895.4,286046999.2,N
1538499915.3,286046997.6,N
1538499935.1,286046995.7,N
1538499955.8,286046997.9,N
1538499975.7,286046998.8,N
1538499995.5,286047001.3,N
1538500015.4,286047003.1,N
1538500035.2,286047003.5,N
1538500055.0,286047001.8,N
1538500055.9,286047001.8,N
1538500075.8,286047001.5,N
1538500095.6,286047000.8,N
1538500115.4,286047002.3,N
1538500135.3,286046998.7,N
1538500155.1,286046998.9,N
1538500175.9,286047001.7,N
1538500195.7,286047000.2,N
1538500215.5,286046998.4,N
1538500235.4,286046998.3,N
1538500255.2,286047004.0,N
1538500275.0,286047003.9,N
1538500276.0,286047003.9,N
1538500295.8,286047001.9,N
1538500315.6,286046998.5,N
1538500335.5,286046997.3,N
1538500355.3,286046996.7,N
1538500375.1,286046998.3,N
1538500395.9,286047001.2,N
1538500415.7,286047002.3,N
1538500435.6,286046999.7,N
1538500455.4,286046998.6,N
1538500475.2,286046998.4,N
1538500495.1,286046998.5,N
1538500496.0,286046998.5,N
1538500515.8,286046998.4,N
1538500535.7,286046998.8,N
1538500555.5,286047002.4,N
1538500575.3,286047002.1,N
1538500595.2,286047004.3,N
1538500615.0,286047004.4,N
1538500615.9,286047004.4,N
1538500635.8,286047002.0,N
1538500655.6,286047002.5,N
1538500675.4,286047001.1,N
1538500695.3,286046999.9,N
1538500715.1,286046998.5,N
1538500716.0,286046998.5,N
1538500735.8,286047002.6,N
1538500755.7,286047000.9,N
1538500775.5,286047000.1,N
1538500795.3,286046998.7,N
1538500815.2,286047002.6,N
1538500835.0,286047004.2,N
1538500835.9,286047004.2,N
1538500855.8,286047008.9,Y
1538500875.6,286047008.8,P
1538500895.4,286047007.9,N
1538500915.3,286047006.7,N
1538500935.1,286047001.5,N
1538500955.8,286047001.0,N
1538500975.7,286046998.5,N
1538500995.5,286046998.9,N
1538501015.4,286046997.4,N
1538501035.2,286046995.1,N
1538501055.0,286046999.1,N
1538501055.9,286046999.1,N
1538501075.8,286047002.3,N
1538501095.6,286046998.6,N
1538501115.5,286047000.6,N
1538501135.3,286046999.3,N
1538501155.1,286046997.9,N
1538501175.9,286046995.5,N
1538501195.7,286046995.4,N
1538501215.6,286046998.8,N
1538501235.4,286047000.4,N
1538501255.2,286047000.3,N
1538501275.1,286047004.3,N
1538501276.0,286047004.3,N
1538501295.8,286047002.6,N
1538501315.6,286046998.2,N
1538501335.5,286046996.8,N
1538501355.3,286046997.9,N
1538501375.2,286046997.3,N
1538501425.9,286047000.6,E
1538501435.8,286046998.8,N
1538501455.7,286046999.9,P
1538501475.5,286046999.9,N
1538501495.4,286047002.4,Y
1538501515.2,286047002.4,P
1538501535.0,286046998.9,N
1538501535.9,286046998.9,N
1538501555.8,286047002.7,N
1538501575.6,286046998.3,N
1538501595.4,286046998.9,N
1538501615.3,286046998.7,N
1538501635.1,286046999.2,N
1538501655.8,286047000.6,N
1538501675.7,286046999.9,N
1538501695.5,286046999.7,N
1538501715.4,286047005.1,Y
1538501735.2,286047003.2,P
1538501755.0,286047002.5,N
1538501755.9,286047002.5,N
1538501775.8,286047002.1,N
1538501795.7,286047001.6,N
1538501815.6,286047005.7,Y
1538501835.4,286047003.9,P
1538501855.2,286046998.9,N
1538501875.1,286046996.7,N
1538501876.0,286046996.7,N
1538501895.8,286046997.0,N
1538501915.6,286046994.9,N
1538501935.5,286046999.3,N
1538501955.3,286046999.5,N
1538501975.1,286046999.9,N
1538501995.9,286047000.4,N
1538502015.7,286046998.5,N
1538502035.6,286046999.7,N
1538502055.4,286047011.9,Y
1538502075.2,286046999.8,P
1538502095.1,286046998.6,P
1538502096.0,286046998.6,N
1538502115.8,286046998.2,Y
1538502135.6,286046998.3,P
1538502155.5,286046999.6,N
1538502175.3,286046999.9,N
1538502195.2,286046999.2,N
1538502215.9,286046998.6,N
1538502235.7,286046997.2,Y
1538502255.6,286046994.9,P
1538502275.4,286046999.5,N
1538502295.2,286046997.7,N
1538502315.1,286047001.2,N
1538502316.0,286047001.2,N
1538502335.8,286046999.4,N
1538502355.7,286047001.2,N
1538502375.5,286047001.6,N
1538502395.3,286046999.7,N
1538502415.2,286047001.8,N
1538502435.9,286047002.1,N
1538502455.7,286046999.9,N
1538502475.6,286047000.6,N
1538502495.4,286047003.1,N
1538502515.2,286047003.7,N
1538502535.1,286047002.0,N
1538502536.0,286047002.0,N
1538502555.8,286047000.7,N
1538502575.7,286046998.3,N
1538502595.5,286047002.8,N
1538502615.3,286046998.3,N
1538502635.2,286047000.6,N
1538502655.0,286047003.8,N
1538502655.9,286047003.8,N
1538502675.7,286047001.7,N
1538502695.6,286047002.7,N
1538502715.4,286046998.2,N
1538502735.3,286046998.7,N
1538502755.1,286047001.7,N
1538502756.0,286047001.7,N
1538502775.8,286047003.9,N
1538502795.7,286047004.0,N
1538502815.5,286047004.2,N
1538502835.3,286047003.3,N
1538502855.2,286047001.4,N
1538502875.0,286047002.2,N
1538502875.9,286047002.2,N
1538502895.8,286047002.8,N
1538502915.6,286047002.6,N
1538502935.4,286046998.2,N
1538502955.3,286047002.0,N
1538502975.1,286047001.5,N
1538502995.8,286047002.1,N
1538503015.7,286046998.3,N
1538503035.5,286047000.6,N
1538503055.3,286046998.1,N
1538503075.2,286046997.4,N
1538503095.0,286046999.1,N
1538503095.9,286046999.1,N
1538503115.8,286046999.4,N
1538503135.6,286046998.6,N
1538503155.4,286046998.4,N
1538503175.3,286047000.7,N
1538503195.1,286046999.1,N
